Regional Weather Roundup
Issued by NWS

Home | Current Version | Previous Version | Text Only | Print | Product List | Glossary On
Versions: 1 2 3 4 5 6 7 8 9 10 11 12 13 14 15 16 17 18 19 20 21 22 23 24 25 26 27 28 29 30 31 32 33 34 35 36 37 38 39 40 41 42 43 44 45 46 47 48 49 50
000
ASUS46 KSTO 262115
RWRCA

NORTHERN AND CENTRAL CA REGIONAL WEATHER ROUNDUP
NATIONAL WEATHER SERVICE SACRAMENTO CA
200 PM PDT THU APR 26 2018

NOTE: FAIR INDICATES FEW OR NO CLOUDS BELOW 12,000 FEET WITH NO
SIGNIFICANT WEATHER AND/OR OBSTRUCTIONS TO VISIBILITY.

CAZ001-003-262200-
NORTHWEST AREA

CITY           SKY/WX    TMP DP  RH WIND       PRES   REMARKS
CRESCENT CITY  CLOUDY    55  47  74 S8        30.06S
UKIAH          FAIR      70  50  49 VRB3      29.95F
$$

CAZ006-505>513-262200-
BAY AREA

CITY           SKY/WX    TMP DP  RH WIND       PRES   REMARKS
SANTA ROSA     FAIR      64  50  60 VRB3      29.98F
SAN RAFAEL     N/A       63  MM  MM MISG
NAPA           FAIR      65  48  54 W13       29.99F
CONCORD        FAIR      68  47  46 W13       29.98F
OAKLAND CITY   N/A      MM  MM  MM MISG
OAKLAND        FAIR      60  46  59 W15       30.02F
SAN FRAN CITY  N/A       57  MM  62 MISG
SAN FRAN ARPT  FAIR      63  44  50 W21       30.01F
LIVERMORE      FAIR      66  49  54 NW13      29.98F
HAYWARD        FAIR      61  43  51 NW14      30.02F
REDWOOD CITY   N/A       65  MM  55 MISG
MOFFETT ARPT   FAIR      62  48  60 N13       30.02F
SAN JOSE ARPT  FAIR      67  50  54 NW9       30.00F
$$
CAZ034-037-514>518-262200-
CENTRAL COAST

CITY           SKY/WX    TMP DP  RH WIND       PRES   REMARKS
WATSONVILLE    FAIR      60  50  69 S10       30.03F
SALINAS        FAIR      62  47  57 W12       30.02F
MONTEREY       FAIR      57  46  66 W10       30.04F
SAN LUIS OBISP FAIR      65  50  58 NW13      30.02F
SANTA MARIA    FAIR      65  51  60 NW13G20   30.04S
$$
CAZ015-016-262200-
NORTHERN SACRAMENTO VALLEY

CITY           SKY/WX    TMP DP  RH WIND       PRES   REMARKS
REDDING        FAIR      80  53  39 VRB6      29.89F
RED BLUFF      FAIR      80  50  34 VRB6      29.91F
OROVILLE       FAIR      75  51  43 SE9       29.94F
$$
CAZ016>018-262200-
SOUTHERN SACRAMENTO VALLEY

CITY           SKY/WX    TMP DP  RH WIND       PRES   REMARKS
AUBURN         FAIR      72  48  43 SW7       29.97F
BEALE AFB      SUNNY     74  55  50 SE10      29.92F
LINCOLN        FAIR      72  50  46 S7        29.93F
MARYSVILLE     FAIR      73  55  53 S9        29.93F
SAC INTL ARPT  FAIR      74  53  48 S8        29.93F
MATHER AIRPORT SUNNY     70  50  49 SW8       29.95F
DOWNTOWN SAC   N/A       73  MM  MM MISG
SAC EXEC ARPT  FAIR      70  49  47 SW9       29.95F
VACAVILLE      FAIR      73  51  46 SW13      29.95F
TRAVIS AFB     FAIR      67  49  54 SW22      29.93F
$$
CAZ019>021-262200-
SAN JOAQUIN VALLEY

CITY           SKY/WX    TMP DP  RH WIND       PRES   REMARKS
STOCKTON       FAIR      77  49  37 SW8       29.95F
MODESTO        FAIR      77  46  33 NW8       29.94F
MERCED         FAIR      79  40  24 N6        29.92F
LEMOORE        FAIR      83  42  23 VRB3      29.92F
FRESNO         FAIR      81  49  32 NW5       29.93F
HANFORD        FAIR      84  42  22 VRB6      29.93F
PORTERVILLE    FAIR      83  49  30 NW9       29.94F
BAKERSFIELD    FAIR      84  49  29 NW8       29.91F
$$
CAZ011-012-071-262200-
NORTHERN MOUNTAINS

CITY           SKY/WX    TMP DP  RH WIND       PRES   REMARKS
YREKA          FAIR      80  35  19 NE3       29.93F
MOUNT SHASTA   FAIR      80  37  21 CALM      29.96F
ALTURAS        FAIR      79  31  17 NE6       30.02F
$$
CAZ011-012-071-262200-
SIERRA NEVADA MTNS

CITY           SKY/WX    TMP DP  RH WIND       PRES   REMARKS
BLUE CANYON    FAIR      65  44  46 VRB5G17   30.11F
TRUCKEE        MOSUNNY   72  27  18 S9        30.10F
TAHOE VLY ARPT FAIR      68  31  25 VRB6      30.11F
MAMMOTH LAKES  FAIR      73  20  13 SE15      30.16S
$$



USA.gov is the U.S. government's official web portal to all federal, state and local government web resources and services.